Preview of NWS' New Version of Forecast
This preview is not operational and should not be used for support decisions.

Regional Weather Roundup (RWR)

Issued by National Weather Service (NWS)

                            
000
ASUS44 KJAN 240110
RWRMS 

MISSISSIPPI HOURLY WEATHER ROUNDUP
NATIONAL WEATHER SERVICE JACKSON MS
800 PM CDT SUN JUN 23 2019

NOTE: "FAIR: INDICATES FEW OR NO CLOUDS BELOW 12,000 FEET WITH NO
SIGNIFICANT WEATHER AND/OR OBSTRUCTIONS TO VISIBILITY.

MSZ001>002-007>008-010>013-018>021-025>028-034>036-240200-
NORTHWEST MISSISSIPPI
  
CITY           SKY/WX    TMP DP  RH WIND       PRES   REMARKS
BATESVILLE       N/A     70  68  94 CALM      29.91F                  
CLARKSDALE     CLOUDY    72  72 100 E7        29.90R                  
CLEVELAND      LGT RAIN  68  68 100 E9        29.91F                  
GREENWOOD      TSTM      74  65  73 NW15G23   29.93R                  
GREENVILLE       N/A    N/A N/A N/A MISG      29.90R THUNDER          
OLIVE BRANCH   CLOUDY    68  68 100 SE6       29.89F                  
OXFORD         MOCLDY    68  66  94 E6        29.93F                  
TUNICA           N/A     70  68  94 SE6       29.90S                  
WINONA         FAIR      83  77  83 CALM      29.87F HX  92           
$$

MSZ003>006-009-014>017-022>024-029>033-037>039-240200-
NORTHEAST MISSISSIPPI
  
CITY           SKY/WX    TMP DP  RH WIND       PRES   REMARKS
ABERDEEN       FAIR      81  82 100 SE5       29.90S FOG     HX  91   
COLUMBUS AFB   NOT AVBL                                               
CORINTH        LGT RAIN  70  66  88 NW9G16    29.92R VSB 1/2          
GOLDN TRIANGLE FAIR      81  70  69 S5        29.90F                  
STARKVILLE     FAIR      81  70  69 S3        29.90S                  
TUPELO         FAIR      84  72  67 S6        29.88S                  
$$

MSZ040-058-240200-
CENTRAL MISSISSIPPI
  
CITY           SKY/WX    TMP DP  RH WIND       PRES   REMARKS
JACKSON INTL   MOCLDY    83  73  72 SE9       29.89F                  
JACKSON HAWKNS FAIR      84  73  69 S9        29.89F HX  90           
MADISON        FAIR      81  73  78 CALM      29.89F                  
MERIDIAN KEY   FAIR      87  74  64 S7        29.91F HX  95           
MERIDIAN NAS   FAIR      86  71  60 S3        29.92R HX  91           
RAYMOND        FAIR      81  79  94 SE5       29.88S                  
VICKSBURG VKS  CLEAR     86  75  70 S7        29.87R HX  95           
$$

MSZ059>079-240200-
SOUTH MISSISSIPPI
  
CITY           SKY/WX    TMP DP  RH WIND       PRES   REMARKS
BROOKHAVEN     FAIR      81  75  83 E6        29.93S                  
HATTIESBURG    FAIR      86  76  71 SE9       29.94S HX  96           
LAUREL         CLEAR     86  76  72 S7        29.93S HX  95           
MCCOMB         FAIR      85  74  69 S13       29.92S HX  92           
NATCHEZ        FAIR      84  76  76 S9        29.90R HX  93           
PINE BELT      FAIR      85  77  77 S8        29.94S HX  95           
$$

MSZ080>082-240200-
COASTAL MISSISSIPPI
  
CITY           SKY/WX    TMP DP  RH WIND       PRES   REMARKS
BAY ST LOUIS   PTCLDY    84  77  79 S9        29.94S HX  94           
BILOXI         NOT AVBL                                               
PASCAGOULA     FAIR      86  75  69 S5        29.97R HX  95           
GULFPORT       MOCLDY    86  76  71 S10       29.95S HX  96           
$$

LAZ007>009-015>016-023>026-240200-
NORTHEAST LOUISIANA
  
CITY           SKY/WX    TMP DP  RH WIND       PRES   REMARKS
BASTROP        FAIR      85  75  71 S5        29.83F HX  94           
TALLULAH/VBURG FAIR      86  76  71 S6        29.86S HX  96           
VIDALIA        FAIR      85  77  76 S7        29.87S HX  95           
$$